CFOSAT (43662 NORAD) Tracking and Keplerian Element Data

This shows tracking and keplerian element data for the satellite.

Feedback or suggestion? Click here.




ElementValue
Catalog43662
NameCFOSAT
Epoch Orbit34706
Epoch Day35.21992135
Epoch Year2025
RAAN49.2955
Inclination97.3693
Eccentricity0.000385
Argument of Perigee176.3548
Mean Anonmoly183.7714
Mean Motion15.16663338
Decay Rate7.162E-05
L11 43662U 18083A 25035.21992135 .00007162 00000+0 36914-3 0 9999
L22 43662 97.3693 49.2955 0003850 176.3548 183.7714 15.16663338347067



Live tracking and technical data element details for CFOSAT (NORAD 43662). CFOSAT can be tracked NOW for your location showing map with azimuth and elevation plus other details from your city location.







IsCatalogInMostPopularTable: catalog: 43662, numindb: 368
Update: records affected: 1



GetName: 43662 CFOSAT

Hit Count: updated at: Sat, 24 May 2025 15:20:59 GMT